Flag for Norway Weather past 2 weeks in Sandefjord, Norway

Now
9 °F

Frigid.


Feels Like: 9 °F
Forecast: 13 / 20 °F
Wind: 1 mph from Southwest

Location: Torp

Current Time: Dec 26, 2014 at 3:20:54 AM

Latest Report: Dec 26, 2014 at 2:50 AM


Visibility: N/A

Pressure: 30.21 "Hg

Humidity: 92%

Dew point: 7 °F

Location of SandefjordLocation

Historic Weather in Sandefjord — Graph

°F

Sandefjord temperature yesterday

Maximum temperature yesterday: 23 °F (at 12:20 AM)
Minimum temperature yesterday: 9 °F (at 11:50 PM)
Average temperature yesterday: 17 °F

Past Weeks' High & Low Weather Summary

 TemperatureHumidityPressure
High45 °F (Dec 14, 3:20 PM)100% (Dec 11, 2:50 PM)30.21 "Hg (Dec 11, 2:50 PM)
Low9 °F (Dec 25, 11:50 PM)52% (Dec 21, 3:20 AM)28.97 "Hg (Dec 12, 6:50 PM)
Average33 °F83%29.36 "Hg
* Reported Dec 11 1:20 AM — Dec 26 1:50 AM, Sandefjord, Weather by CustomWeather, © 2014

Note: Actual official high and low records may vary slightly from our data, if they occured in-between our weather recording intervals... More about our weather records

Advertising

Sandefjord weather history for previous 24 hours

 ConditionsComfort  
Time TempWeatherWind HumidityBarometerVisibility
1:50 AM
Dec 26
9 °FFrigid.1 mph92%30.21 "HgN/A
1:20 AM9 °FFrigid.2 mph85%30.21 "HgN/A
12:50 AM9 °FFrigid.1 mph92%30.21 "HgN/A
12:20 AM10 °FCold.2 mph85%30.21 "HgN/A
11:50 PM
Dec 25
9 °FFrigid.2 mph92%30.21 "HgN/A
11:20 PM10 °FCold.1 mph85%30.21 "HgN/A
10:50 PM10 °FCold.5 mph85%30.21 "HgN/A
10:20 PM14 °FCold.5 mph79%30.21 "HgN/A
9:50 PM12 °FCold.1 mph79%30.21 "HgN/A
9:20 PM10 °FCold.1 mph92%30.21 "HgN/A
8:50 PM12 °FCold.3 mph79%30.21 "HgN/A
8:20 PM16 °FCold.1 mph73%30.21 "HgN/A
7:50 PM16 °FCold.1 mph73%30.21 "HgN/A
7:20 PM16 °FCold.2 mph73%30.21 "HgN/A
6:50 PM16 °FCold.1 mph73%30.21 "HgN/A
6:20 PM16 °FCold.2 mph73%30.21 "HgN/A
5:50 PM16 °FCold.2 mph73%30.21 "HgN/A
5:20 PM16 °FCold.2 mph73%30.18 "HgN/A
4:50 PM16 °FCold.3 mph73%30.18 "HgN/A
4:20 PM16 °FCold.5 mph79%30.18 "HgN/A
3:50 PM16 °FCold.5 mph73%30.18 "HgN/A
3:20 PM18 °FCold.5 mph73%30.18 "HgN/A
2:50 PM19 °FSunny.5 mph68%30.15 "Hg10 mi
2:20 PM21 °FSunny.8 mph63%30.15 "Hg10 mi
1:50 PM21 °FSunny.7 mph63%30.15 "Hg10 mi
1:20 PM21 °FSunny.7 mph63%30.15 "Hg10 mi
12:50 PM21 °FCold.8 mph63%30.12 "HgN/A
12:20 PM21 °FCold.8 mph63%30.12 "HgN/A
11:50 AM19 °FCold.9 mph73%30.12 "HgN/A
11:20 AM19 °FCold.8 mph73%30.12 "HgN/A
10:50 AM19 °FCold.8 mph73%30.09 "HgN/A
10:20 AM18 °FCold.9 mph79%30.09 "HgN/A
9:50 AM18 °FCold.8 mph73%30.09 "HgN/A
9:20 AM18 °FCold.8 mph73%30.07 "HgN/A
8:50 AM18 °FCold.8 mph73%30.07 "HgN/A
8:20 AM18 °FCold.8 mph73%30.04 "HgN/A
7:50 AM18 °FCold.8 mph79%30.04 "HgN/A
7:20 AM18 °FCold.8 mph79%30.01 "HgN/A
6:50 AM18 °FCold.10 mph79%30.01 "HgN/A
6:20 AM18 °FCold.7 mph79%29.98 "HgN/A
5:50 AM18 °FCold.9 mph79%29.98 "HgN/A
5:20 AM18 °FCold.9 mph79%29.95 "HgN/A
4:50 AM19 °FCold.10 mph79%29.95 "HgN/A
4:20 AM19 °FCold.9 mph79%29.92 "HgN/A
3:50 AM19 °FCold.9 mph79%29.92 "HgN/A
3:20 AM19 °FCold.7 mph79%29.92 "HgN/A
Weather by CustomWeather, © 2014

See weather overviewHow to use our weather pages